Regional Weather Roundup
Issued by NWS Grand Forks, ND

Home | Current Version | Previous Version | Text Only | Print | Product List | Glossary Off
Versions: 1 2 3 4 5 6 7 8 9 10 11 12 13 14 15 16 17 18 19 20 21 22 23 24 25 26 27 28 29 30 31 32 33 34 35 36 37 38 39 40 41 42 43 44 45 46 47 48 49 50

000
ASUS43 KFGF 280331
RWRFGF
PRAIRIE TO PINES  WEATHER ROUNDUP
NATIONAL WEATHER SERVICE EASTERN NORTH DAKOTA/GRAND FORKS ND
1000 PM CDT TUE SEP 27 2016

 **SATELLITE DATA USED TO AUGMENT SKY COVER AT AUTOMATED STATIONS**
 *****  WEATHER ACROSS EASTERN NORTH DAKOTA  *****

CITY           SKY/WX    TMP DP  RH WIND       PRES   REMARKS
GRAND FORKS    CLOUDY    53  46  77 NE9       30.01R
GRAND FRKS AFB CLOUDY    50  46  85 NE6       30.00R
GRAND FRKS NWS   N/A     50 N/A N/A NE9         N/A
DEVILS LAKE    FAIR      46  42  86 CALM      30.02R
FARGO          CLOUDY    53  44  71 NE12      29.99R
WAHPETON ARPT  CLOUDY    50  43  76 N8        29.97R
$$

 ***** WEATHER ACROSS CENTRAL AND WESTERN NORTH DAKOTA  *****

CITY           SKY/WX    TMP DP  RH WIND       PRES   REMARKS
BISMARCK       CLEAR     52  43  71 NE5       30.00R
MINOT          FAIR      52  42  69 CALM      29.99R
JAMESTOWN      FAIR      46  38  73 NE5       29.99R
MINOT AFB      FAIR      52  41  66 S2        29.99R
GARRISON         N/A     53  43  68 E5        29.99R
WILLISTON      CLEAR     56  49  77 CALM      29.96R
DICKINSON      CLEAR     58  46  64 S7        29.99R
HETTINGER      CLEAR     54  47  77 N3        30.03R
$$

 *****  OTHER AIRPORT OBSERVATIONS IN OUR AREA  *****

CITY           SKY/WX    TMP DP  RH WIND       PRES   REMARKS
WALHALLA       FAIR      50  46  87 NE6       30.04R
GRAFTON AIRPOR   N/A     50  46  87 NE8       30.04R
VALLEY CITY AR FAIR      45  45 100 N3        30.02R
CANDO          FAIR      45  43  93 CALM      30.05R
CAVALIER APRT  CLOUDY    50  45  81 NE9       30.03R
GWINNER        FAIR      45  39  81 N5        29.99R
ROLLA          FAIR      41  36  81 CALM      30.04R
 ***** THE ABOVE OBSERVATIONS ARE NON NWS ARE NOT QUALITY
       CONTROLLED AND MAY MIS-REPORT RAIN FOR SNOW...
$$

  *****  WEATHER ACROSS NORTHERN MINNESOTA  *****

CITY           SKY/WX    TMP DP  RH WIND       PRES   REMARKS
FLAG ISLAND    CLOUDY    52  46  82 N12       30.00R
WARROAD        MOCLDY    45  43  93 VRB7      30.01R
ROSEAU         FAIR      45  39  81 N5        30.01R
HALLOCK        CLOUDY    48  45  87 NE6       30.02R
THF RVR FALLS    N/A     47  41  80 N7        30.01R
BAUDETTE       CLOUDY    48  45  89 N6        29.99R
WASKISH        CLOUDY    46  45  93 N5        29.98R
CROOKSTON      FAIR      48  43  81 E5        30.02R
STEPHEN NDAWN    N/A     46  45  93 N3          N/A
GREENBUSH NDAW   N/A     48  45  87 N3          N/A
$$
  *****  WEATHER ACROSS CENTRAL AND WEST MINNESOTA  *****

CITY           SKY/WX    TMP DP  RH WIND       PRES   REMARKS
FOSSTON        CLOUDY    45  41  87 N7        30.00R
BEMIDJI        CLOUDY    39  39  99 NW6       29.97R
PARK RAPIDS    FAIR      47  41  80 N10       29.96R
ELBOW LAKE     MOCLDY    50  44  79 N9        29.96R
WADENA         MOCLDY    45  41  87 VRB6      29.95R
DETROIT LAKES  MOCLDY    46  43  87 N5        29.99R
MOORHEAD       CLOUDY    52  45  76 NE12G18   29.99R
FERGUS FALLS   MOCLDY    52  43  71 NE13G20   29.98R
MORRIS MN      CLOUDY    52  45  76 N13       29.94R
STAPLES        CLOUDY    45  43  93 N6        29.95R
$$
  *****  WEATHER ELSEWHERE ACROSS MINNESOTA  *****

CITY           SKY/WX    TMP DP  RH WIND       PRES   REMARKS
DULUTH         LGT RAIN  49  47  93 N10       29.85R
INTRNTL FALLS  CLOUDY    50  46  86 N7        29.95R
ELY            CLOUDY    48  46  93 NW8       29.88R
CLOQUET        CLOUDY    48  45  87 NW9       29.87R
WHEATON        FAIR      50  45  81 N3        29.98R
BRAINERD       MOCLDY    47  44  90 N10       29.93R
HIBBING        CLOUDY    48  45  89 N12       29.90R
ALEXANDRIA     CLOUDY    49  46  90 NE13      29.95R
SAINT CLOUD    FAIR      46  45  96 N6        29.91R
MINNEAPOLIS    MOCLDY    50  46  86 N13       29.88R
$$

  *****  WEATHER ACROSS SOUTH DAKOTA  *****

CITY           SKY/WX    TMP DP  RH WIND       PRES   REMARKS
SIOUX FALLS    FAIR      55  42  61 N8        29.91R
BROOKINGS      FAIR      49  34  56 N6        29.93R
WATERTOWN      FAIR      45  32  60 N7        29.95R
HURON          CLEAR     56  40  55 N9        29.94R
SISSETON         N/A     48  41  76 NW6       29.96R
ABERDEEN       CLEAR     51  36  56 N6        29.96R
MITCHELL       CLEAR     56  41  57 NW6       29.94R
PIERRE         CLEAR     58  42  55 NE8       29.95R
MOBRIDGE       CLEAR     61  41  47 E14       29.95R
RAPID CITY     CLEAR     62  42  47 N10       30.05R
$$

  *****  SOME WEATHER IN NEARBY STATES *****

CITY           SKY/WX    TMP DP  RH WIND       PRES   REMARKS
GLASGOW MT     CLEAR     65  46  50 VRB7      29.96R
GREAT FALLS MT PTCLDY    60  45  57 N14       30.16R
CHEYENNE WY    CLEAR     56  28  34 W8        30.24R
SCOTTSBLUFF NE CLEAR     59  42  53 N3        30.10R
OMAHA NE       FAIR      61  52  72 SE3       29.87R
DES MOINES IA  MOCLDY    63  48  58 NW5       29.82S
DAVENPORT IA   FAIR      57  42  57 W5        29.78S
CHICAGO IL     CLOUDY    57  46  66 N14       29.79R
EAU CLAIRE WI  CLOUDY    48  46  93 NW9       29.81S
LA CROSSE WI   LGT RAIN  52  48  86 NW9       29.81S
$$

  *****  SOME NATIONAL WEATHER *****

CITY           SKY/WX    TMP DP  RH WIND       PRES   REMARKS
LA GUARDIA NY  FAIR      70  63  78 CALM      29.96R
RALEIGH NC     MOCLDY    72  70  93 S3        29.91S
ATLANTA GA     CLOUDY    72  70  93 SW3       29.94S
NEW ORLEANS LA CLOUDY    81  71  71 S3        29.95S
OKLAHOMA CITY  CLEAR     60  51  72 S6        30.01R
ALBUQUERQUE NM CLEAR     65  38  36 SE8       30.20R
SALT LAKE CITY CLEAR     65  52  62 CALM      30.14R
LOS ANGELES CA PTCLDY    80  49  33 NW6       29.86R
BOISE ID       CLEAR     71  46  40 SW3       29.99S
SEATTLE WA     CLEAR     58  41  53 N14       30.14S
$$

*** WEATHER ACROSS MANITOBA...SASKATCHEWAN AND ONTARIO ***
                ***ONTARIO***

CITY           SKY/WX    TMP DP  RH WIND       PRES   REMARKS
GERALDTON      CLOUDY    52  50  93 NE9       29.88R
THUNDER BAY    MOCLDY    54  48  82 NE12      29.81R
SIOUX LOOKOUT  MOCLDY    50  48  93 VRB5      29.95R
TORONTO        MOCLDY    61  43  51 S3        29.85R
BIG TROUT LK   LGT RAIN  50  50 100 CALM      30.02  FOG
PICKLE LAKE    NOT AVBL
DRYDEN         CLOUDY    50  48  93 N8        29.96R
KENORA         CLOUDY    46  46 100 N6        30.00R
$$
                *** MANITOBA***

CITY           SKY/WX    TMP DP  RH WIND       PRES   REMARKS
BRANDON        CLEAR     45  39  81 E6        30.03
DAUPHIN        CLEAR     37  36  93 W3        30.02R
ISLAND LAKE    CLOUDY    46  45  93 E3        30.05R
PILOT MOUND      N/A     41  37  87 NE6         N/A
THE PAS        CLEAR     45  41  87 SE5       30.01R
THOMPSON       CLOUDY    46  41  81 S3        30.02F
WINNIPEG       MOCLDY    48  43  81 E9        30.03R
LYNN LAKE      CLOUDY    45  41  87 S7        29.95S
CHURCHILL      CLOUDY    43  43 100 CALM      30.00F
GILLAM         FOG       43  43 100 SW2       30.03S VSB 1/2
$$
                ***SASKATCHEWAN***

CITY           SKY/WX    TMP DP  RH WIND       PRES   REMARKS
ESTEVAN        CLEAR     54  45  71 E10       29.98R
KINDERSLEY     MOCLDY    50  39  66 N10       30.14R
LLOYDMINSTER   CLEAR     46  36  66 W8        30.16R
PRINCE ALBERT  PTCLDY    57  46  67 N13G22    30.02R
REGINA         CLEAR     59  46  63 SE9       29.96R
YORKTON        CLEAR     50  32  50 SE8       29.98R
N. BATTLEFORD  CLEAR     45  37  76 NW8       30.14R
LA RONGE       MOCLDY    52  48  87 W8        30.04R
SASKATOON      PTCLDY    55  45  67 NW15      30.06R
SWIFT CURRENT  CLEAR     54  45  71 NW15G21   30.09R
$$
NOTE: THESE ARE AUTOMATED STATIONS WITH LIMITED QUALITY CONTROL
      "FAIR" INDICATES FEW OR NO CLOUDS BELOW 12,000 FEET WITH NO
      SIGNIFICANT WEATHER AND/OR OBSTRUCTIONS TO VISIBILITY.
      SKY/WX - SKY CONDITION AND SIGNIFICANT WEATHER.
      TMP - AIR TEMPERATURE.    DP   - DEWPOINT TEMPERATURE.
      RH  - RELATIVE HUMIDITY.  PRES - PRESSURE.
      HX  - HEAT INDEX.         WCI  - WIND CHILL INDEX.
$



USA.gov is the U.S. government's official web portal to all federal, state and local government web resources and services.